This is the latest recevied weather packets stored in our database for station/object KE0LFX. If no packets are shown the sender has not sent any weather packets the latest 10 day(s).
| Time | Temp. | Humidity | Pressure | Rain* | Wind** | Luminosity | Snow |
|---|---|---|---|---|---|---|---|
| 1778020607 | 15° C | 37% | 1013.2 hPa | 0 mm | - | 127 W/m² | - |
| 1778020303 | 15° C | 35% | 1013 hPa | 0 mm | - | 147 W/m² | - |
| 1778019999 | 15° C | 38% | 1013.1 hPa | 0 mm | - | 137 W/m² | - |
| 1778019696 | 15° C | 37% | 1013.2 hPa | 0 mm | - | 152 W/m² | - |
| 1778019392 | 15° C | 36% | 1013.1 hPa | 0 mm | - | 168 W/m² | - |
| 1778019089 | 15° C | 36% | 1013.2 hPa | 0 mm | - | 140 W/m² | - |
| 1778018787 | 15° C | 37% | 1013.2 hPa | 0 mm | - | 109 W/m² | - |
| 1778018484 | 15° C | 37% | 1013.1 hPa | 0 mm | - | 101 W/m² | - |
| 1778018181 | 15° C | 37% | 1013.2 hPa | 0 mm | - | 98 W/m² | - |
| 1778017879 | 14.44° C | 37% | 1013.2 hPa | 0 mm | - | 100 W/m² | - |
| 1778017577 | 15° C | 38% | 1013.4 hPa | 0 mm | - | 85 W/m² | - |
| 1778017274 | 15° C | 39% | 1013.5 hPa | 0 mm | - | 95 W/m² | - |
| 1778016972 | 15° C | 39% | 1013.5 hPa | 0 mm | - | 94 W/m² | - |
| 1778016668 | 15° C | 39% | 1013.3 hPa | 0 mm | - | 110 W/m² | - |
| 1778016364 | 15° C | 37% | 1013.4 hPa | 0 mm | - | 130 W/m² | - |
| 1778016062 | 15° C | 36% | 1013.4 hPa | 0 mm | - | 142 W/m² | - |
| 1778015759 | 15° C | 39% | 1013.4 hPa | 0 mm | - | 157 W/m² | - |
| 1778015456 | 15° C | 38% | 1013.5 hPa | 0 mm | - | 192 W/m² | - |
| 1778015152 | 15° C | 37% | 1013.6 hPa | 0 mm | - | 164 W/m² | - |
| 1778014850 | 15° C | 37% | 1013.8 hPa | 0 mm | - | 158 W/m² | - |
| 1778014547 | 15.56° C | 39% | 1013.8 hPa | 0 mm | - | 207 W/m² | - |
| 1778014244 | 15° C | 37% | 1013.8 hPa | 0 mm | - | 321 W/m² | - |
| 1778013942 | 14.44° C | 38% | 1013.7 hPa | 0 mm | - | 239 W/m² | - |
| 1778013639 | 14.44° C | 37% | 1014 hPa | 0 mm | - | 256 W/m² | - |
| 1778013335 | 14.44° C | 37% | 1014 hPa | 0 mm | - | 294 W/m² | - |
* Rain latest hour (hover to see other rain measurements)
** Current wind speed in m/s (hover to see current wind gust speed)